Regional Weather Roundup
Issued by NWS

Home | Current Version | Previous Version | Graphics & Text | Print | Product List | Glossary On
Versions: 1 2 3 4 5 6 7 8 9 10 11 12 13 14 15 16 17 18 19 20 21 22 23 24 25 26 27
000
ASUS45 KTFX 170010
RWRMT
MONTANA REGIONAL WEATHER ROUNDUP
NATIONAL WEATHER SERVICE GREAT FALLS MT
500 PM MST TUE JAN 16 2018

NOTE: "FAIR" INDICATES FEW OR NO CLOUDS BELOW 12000 FEET WITH NO
SIGNIFICANT WEATHER AND/OR OBSTRUCTIONS TO VISIBILITY.

MTZ001>007-043-170100-
WEST OF THE DIVIDE

CITY           SKY/WX    TMP DP  RH WIND       PRES   REMARKS
KALISPELL      CLOUDY    30  27  88 CALM      30.30R
MISSOULA       MOCLDY    34  26  72 CALM      30.28R
BUTTE          FAIR      28  18  66 CALM      30.23R
MULLAN PASS    FLURRIES  29  28  96 SW9       30.22R WCI  20
ANACONDA         N/A     27  19  74 CALM      30.24S
DEER LODGE       N/A     25  21  86 CALM      30.28R
EUREKA           N/A     34  27  75 MISG      30.26R
HAMILTON         N/A     34  28  80 CALM      30.28R
RONAN            N/A     32  28  86 NW3       30.32R
$$

MTZ008-052>055-170100-
SOUTHWEST MONTANA

CITY           SKY/WX    TMP DP  RH WIND       PRES   REMARKS
BOZEMAN        FAIR      21  13  71 E3        30.25R
DILLON         FAIR      33  18  53 S5        30.23R
ENNIS          CLEAR     34  19  55 S15G23    30.27R WCI  24
W YELLOWSTONE  FAIR      18  14  86 CALM      30.29S
THREE FORKS      N/A     26  18  72 NE2       30.22
$$

MTZ009-010-012-014-046-048-049-054-170100-
EAST SLOPES AND CENTRAL MONTANA

CITY           SKY/WX    TMP DP  RH WIND       PRES   REMARKS
CUT BANK       FAIR      40  30  67 SW33G45   30.02R
GREAT FALLS    FAIR      40  24  53 SW23G32   30.08R
MALMSTROM AFB  FAIR      38  27  65 SW17      30.09R WCI  29
HELENA         FAIR      17  14  88 CALM      30.24S
AUGUSTA        FAIR      42  29  59 W14G26    30.08R
BOWMANS CRNR   FAIR      31  22  68 S17       30.09S WCI  20
CHOTEAU          N/A     43  28  56 W9        30.08R
FAIRFIELD      FAIR      44  28  53 SW16      30.07R
POWER          FAIR      33  24  70 SW16      30.06S WCI  22
ULM            FAIR      37  26  65 S12       30.11R WCI  29
WHITE SULPHUR    N/A      9   7  92 CALM      30.20R
$$

MTZ011-013-016-021-045-047-050-051-170100-
NORTH CENTRAL MONTANA

CITY           SKY/WX    TMP DP  RH WIND       PRES   REMARKS
HAVRE          FAIR      -9 -14  78 W6        30.12F WCI -22
LEWISTOWN      FAIR      29  11  47 CALM      30.07R
N BAR RANCH    FAIR      28  10  47 CALM      30.07R
CHINOOK          N/A     -8 -15  71 CALM      30.15F
DENTON         FAIR      26  17  67 MISG      30.04R
GRASS RANGE    FAIR      30  13  49 W9        30.01R WCI  22
STANFORD       FAIR      40  16  37 NW9       30.07R
WINIFRED       FAIR      23  10  56 SW7       30.06R WCI  15
$$

MTZ017>020-022>027-061-062-170100-
NORTHEAST MONTANA

CITY           SKY/WX    TMP DP  RH WIND       PRES   REMARKS
GLASGOW        FAIR       7  -1  70 SE12      30.12F WCI  -8
GLENDIVE       FAIR       9   0  67 S14       30.20F WCI  -7
JORDAN           N/A      6   1  80 CALM      30.11F
MALTA          CLEAR     -9 -15  77 W6        30.16R WCI -23
SIDNEY         FAIR       5  -4  66 SW6       30.24F WCI  -6
WOLF POINT     FAIR       0  -9  65 E6        30.18F WCI -12
PLENTYWOOD       N/A      5  -4  66 SE10      30.16F WCI -10
POPLAR           N/A      3  -8  60 N5        30.19F
$$

MTZ028>42-056>058-170100-
SOUTHCENTRAL AND SOUTHEAST MONTANA

CITY           SKY/WX    TMP DP  RH WIND       PRES   REMARKS
BAKER          FAIR       6  -1  73 SE10      30.20F WCI  -9
BILLINGS       FAIR      31  12  45 SW20      30.12S WCI  19
LIVINGSTON     FAIR      27  17  66 NW20      30.18R WCI  13
MILES CITY     FAIR      -4  -9  79 S5        30.19F
BIG TIMBER     CLEAR     21  16  79 VRB3      30.16S
FORSYTH          N/A      0  -6  78 NE5       30.17F
HARLOWTON      FAIR      33  19  55 W23       30.10S WCI  21
LAUREL           N/A     30  10  43 SW18      30.14F WCI  18
$$

REGIONAL REPORTS...DAKOTAS

CITY           SKY/WX    TMP DP  RH WIND       PRES   REMARKS
WILLISTON      FAIR       8  -3  61 SW3       30.23F
MINOT          FAIR      13  -2  51 S14       30.24F WCI  -2
DICKINSON      FAIR      11  -1  58 S15       30.20F WCI  -5
BEACH          FAIR      12  -2  52 S13       30.22F WCI  -3
CROSBY         FAIR      10  -2  56 S22       30.17F WCI  -9
TIOGA          FAIR       5  -4  66 S9        30.22F WCI  -9
WATFORD CITY   FAIR      12  -2  52 S6        30.22F WCI   3
BISMARCK       FAIR       7  -5  57 S6        30.38F WCI  -3
GRAND FORKS    FAIR       4  -3  73 S15       30.44F WCI -14
FARGO          FAIR       6  -3  66 S13       30.53F WCI -10
BUFFALO SD       N/A      4  -5  66 S12       30.17  WCI -12
RAPID CITY     FAIR      19   7  59 SE10      30.27F WCI   7
$$

REGIONAL REPORTS...WYOMING/IDAHO/WASHINGTON

CITY           SKY/WX    TMP DP  RH WIND       PRES   REMARKS
GILLETTE         N/A    N/A N/A N/A MISG      30.18S
SHERIDAN       FAIR       7   0  73 SW7       30.17R WCI  -5
BUFFALO WY     FAIR      29  16  58 S6        30.14R WCI  23
CODY           FAIR      21  12  68 CALM      30.18S
YELLOWSTONE LA   N/A      8   4  83 CALM      30.31R
IDAHO FALLS    FAIR      34  26  72 N6        30.31R WCI  29
SALMON         MOCLDY    30  24  78 N3        30.36R
BOISE          CLOUDY    43  36  76 N8        30.34S
SPOKANE        CLOUDY    37  37 100 NE3       30.29R
$$

REGIONAL REPORTS...ALBERTA

CITY           SKY/WX    TMP DP  RH WIND       PRES   REMARKS
CALGARY        PTCLDY    45  27  49 SW5       29.83S
CARDSTON         N/A     43  28  56 MISG        N/A
EDMONTON       CLEAR     21  12  68 S2        29.78F
FORT MCMURRAY  CLEAR     12   7  79 SE5       29.77F
HIGH LEVEL     CLEAR     14  10  85 S3        29.71F
LETHBRIDGE     PTCLDY    39  30  70 W23       29.97R WCI  29
LLOYDMINSTER   PTCLDY    12   7  79 S3        29.82F
MEDICINE HAT   PTCLDY    32  21  64 SW18G25   29.94F WCI  20
ONEFOUR          N/A     -2  -8  78 SE5         N/A
PEACE RIVER    PTCLDY     9   3  78 S3        29.78F FOG
PINCHER CREEK  CLOUDY    39  28  65 W33G44    29.98F WCI  27
WATERTON GATE    N/A     41  27  56 SW18G32     N/A
$$

REGIONAL REPORTS...SASKATCHEWAN

CITY           SKY/WX    TMP DP  RH WIND       PRES   REMARKS
CORONACH         N/A      7   0  72 S10         N/A  WCI  -8
CYPRESS HILLS    N/A     25  14  63 W6          N/A  WCI  18
ESTEVAN        PTCLDY    12  -2  52 S14       30.17F WCI  -3
PRINCE ALBERT  CLEAR     10   0  61 SW5       29.94F
REGINA         PTCLDY    10   3  72 SE15      30.05F WCI  -6
ROCKGLEN         N/A     12   3  67 S14         N/A  WCI  -3
SASKATOON      CLEAR     16   5  62 S8        29.94F WCI   5
SWIFT CURRENT  CLEAR     21   7  53 W8        29.94S WCI  12
VAL MARIE        N/A     -4  -9  77 SW2         N/A
$$




USA.gov is the U.S. government's official web portal to all federal, state and local government web resources and services.